FENGYUN 1C DEB

Satellite information

Favourite Embed

Satellite Type and Status

DEBRISIN ORBIT

Key statistics

Satellite FENGYUN 1C DEB at a glance.

Uptime

9715

Days in orbit

Revolutions

≈ 14.2

Per day

Orbit

SSO

Sun Synchronous Orbit

Inclination

102.5

Latest

Satellite identification and parameters

Extended collection of information and parameters for FENGYUN 1C DEB.

Object identification

Identified? True

Debris? True

Object name: FENGYUN 1C DEB

International designator: 1999-025BVX

Object number (NORAD): 31483

Object ID (CCSDS): 31483

Country: PEOPLES REPUBLIC OF CHINA (PRC)

Current information (Y/N): Y

RCS size: SMALL

Orbital parameters

Period: 101.692 minutes

Inclination: 102.5013 deg

SMA: 7216.899 km

Apoapsis: 924.281 km

Periapsis: 753.247 km

RAAN: 297.5767 deg

Eccentricy: 0.01184957

Argument of periapsis: 220.0582 deg

Mean anomaly: 153.4811 deg

Mean motion: 14.16044237 rev/day

Mean motion (dot): 0.00008826 rev/day2

B* drag term: 0.0042050754 1/REarth

Two-line elements (TLE)

Creation date: Dec. 13, 2025, 5:47 p.m.

Reference frame: TEME

Reference center: EARTH

Epoch: Dec. 13, 2025, 3:27 a.m. UTC

TLE line 0: 0 FENGYUN 1C DEB

TLE line 1: 1 31483U 99025BVX 25347.14409483 .00008826 00000-0 42051-2 0 9996

TLE line 2: 2 31483 102.5013 297.5767 0118496 220.0582 153.4811 14.16044237947122

Live tracking on map

Real-time ground track for satellite FENGYUN 1C DEB.

In-orbit conjunctions

A list of the most updated potential collisions computed for object FENGYUN 1C DEB.

Target Orbit TCA Probability of collision Miss distance Type
COSMOS 676 LEO 2025-04-21 15:33:39 0.0001210452 280.0 (m) PAYLOAD
DMSP 5D-2 F13 DEB SSO 2024-11-12 15:48:29 0.0001724248 980.0 (m) DEBRIS

Associated space launch

Chinese polar orbiting meteorological satellite

FENGYUN 1C DEB was lifted into orbit during the mission ‘Long March 4B | Feng Yun 1C’, on board a Long March 4B space rocket.

The launch took place on May 10, 1999, 1:33 a.m. from Launch Complex 7.

For more information about the launch, click the button.

Launch to space Long March 4B | Feng Yun 1C
Long March 4B | Feng Yun 1C

Agency: N/A

Status: Launch Successful

Launch date: May 10, 1999, 1:33 a.m. UTC

Rocket: Long March 4B

Launch pad: Launch Complex 7

Location: Taiyuan Satellite Launch Center, People's Republic of China

...

Latest news about this satellite

There are no fresh news available about this satellite. Check back as we update our databases every day.


Newsletter sign-up

Weekly statistics, charts and insights to help you stay on top of the space industry.